TimePDT,TemperatureF,Dew PointF,Humidity,Sea Level PressureIn,VisibilityMPH,Wind Direction,Wind SpeedMPH,Gust SpeedMPH,PrecipitationIn,Events,Conditions,WindDirDegrees,DateUTC
12:53 AM,37.9,36.0,93,30.17,10.0,Calm,Calm,-,N/A,,Clear,0,2013-10-16 07:53:00
1:53 AM,37.9,36.0,93,30.17,10.0,Calm,Calm,-,N/A,,Clear,0,2013-10-16 08:53:00
2:53 AM,37.9,36.0,93,30.16,10.0,Calm,Calm,-,N/A,,Clear,0,2013-10-16 09:53:00
3:53 AM,37.9,35.1,89,30.16,9.0,NNW,4.6,-,N/A,,Clear,340,2013-10-16 10:53:00
4:53 AM,37.0,35.1,93,30.15,10.0,Calm,Calm,-,N/A,,Clear,0,2013-10-16 11:53:00
5:53 AM,34.0,32.0,92,30.17,9.0,North,3.5,-,N/A,,Clear,350,2013-10-16 12:53:00
6:53 AM,37.0,35.1,93,30.17,10.0,Calm,Calm,-,N/A,,Overcast,0,2013-10-16 13:53:00
7:53 AM,39.9,37.0,89,30.18,10.0,Calm,Calm,-,N/A,,Overcast,0,2013-10-16 14:53:00
8:53 AM,44.1,39.0,82,30.20,10.0,Calm,Calm,-,N/A,,Mostly Cloudy,0,2013-10-16 15:53:00
9:53 AM,46.0,39.9,79,30.22,10.0,Calm,Calm,-,N/A,,Scattered Clouds,0,2013-10-16 16:53:00
10:53 AM,52.0,37.9,59,30.22,10.0,Variable,3.5,-,N/A,,Mostly Cloudy,0,2013-10-16 17:53:00
11:53 AM,55.0,39.0,55,30.21,10.0,Calm,Calm,-,N/A,,Overcast,0,2013-10-16 18:53:00
12:53 PM,57.9,39.0,49,30.19,10.0,South,3.5,-,N/A,,Clear,170,2013-10-16 19:53:00
1:53 PM,61.0,35.1,38,30.17,10.0,Calm,Calm,-,N/A,,Clear,0,2013-10-16 20:53:00
2:53 PM,63.0,33.1,33,30.15,10.0,Calm,Calm,-,N/A,,Clear,0,2013-10-16 21:53:00
3:53 PM,63.0,32.0,31,30.15,10.0,Calm,Calm,-,N/A,,Clear,0,2013-10-16 22:53:00
4:53 PM,64.0,34.0,33,30.14,10.0,Calm,Calm,-,N/A,,Clear,0,2013-10-16 23:53:00
5:53 PM,62.1,33.1,34,30.14,10.0,SSE,5.8,-,N/A,,Clear,160,2013-10-17 00:53:00
6:53 PM,57.0,34.0,42,30.15,10.0,South,3.5,-,N/A,,Clear,180,2013-10-17 01:53:00
7:53 PM,53.1,36.0,52,30.16,10.0,Calm,Calm,-,N/A,,Clear,0,2013-10-17 02:53:00
8:53 PM,48.9,36.0,61,30.16,10.0,ESE,3.5,-,N/A,,Clear,110,2013-10-17 03:53:00
9:53 PM,45.0,37.9,76,30.17,10.0,Calm,Calm,-,N/A,,Clear,0,2013-10-17 04:53:00
10:53 PM,41.0,37.0,86,30.18,10.0,Calm,Calm,-,N/A,,Clear,0,2013-10-17 05:53:00
11:53 PM,39.9,35.1,83,30.19,10.0,Calm,Calm,-,N/A,,Clear,0,2013-10-17 06:53:00